Content
SEND FEEDBACK

Daily
Averages
Monthly
Summary
United States of America

SUMRALL, MISSISSIPPI


Home > North America > United States > Mississippi
Elevation: 29 feet     Latitude: 31 25N     Longitude: 089 32W

WEATHER
 
SELECT A DAY
Number of Records: 446,273;   Date Range: 1/1/95 - 7/22/14
 
SHARE

PRINT THIS DATA

[ ← Previous Day ]
WEATHER ALMANAC - FEBRUARY 5, 2013
[ Next Day → ]
[ °C ]   °F
Weather ElementAverageHighLow
Temperature56.9 °F71.6 °F (1:15 pm)46.4 °F (2:35 am)
Dewpoint50.6 °F55.4 °F (11:15 am)42.8 °F (2:35 am)
Humidity80.7 %94 % (5:35 am)56 % (1:35 pm)
Barometer30.01 in30.06 in (11:15 pm)29.96 in (2:35 am)
Wind Speed1.9 mph6.9 mph (1:15 pm)
Weather ElementAverage
Visibility7.1 mi
Wind DirectionENE (65 °)

Weather ElementTotal
Precipitation---
Heating Degree Days6 (Base 65)
Growing Degree Days9 (Base 50)
Averaged from 68 records on February 5, 2013
WEATHER CONDITIONS BREAKOUT
WIND DIRECTION BREAKOUT
WEATHER BY HOUR - FEBRUARY 5, 2013
[ °C ]   °F
Local TimeTemperatureDewpointHumidityBarometerVisibilityWind DirectionWind SpeedGust SpeedPrecipitationEventsConditions
12:35 AM50.0 °F44.6 °F82 %29.99 in10.0 miCalmScattered Clouds
12:55 AM51.8 °F46.4 °F82 %29.98 in10.0 miCalmMostly Cloudy
1:35 AM50.0 °F44.6 °F82 %29.97 in10.0 miCalmScattered Clouds
1:55 AM48.2 °F44.6 °F87 %29.97 in10.0 miNorth (10°)3.5 mphMostly Cloudy
2:35 AM46.4 °F42.8 °F87 %29.96 in10.0 miCalmClear
2:55 AM46.4 °F42.8 °F87 %29.96 in10.0 miNorth (10°)3.5 mphClear
3:15 AM46.4 °F42.8 °F87 %29.96 in8.0 miCalmClear
3:35 AM46.4 °F42.8 °F87 %29.96 in7.0 miCalmMostly Cloudy
3:55 AM48.2 °F44.6 °F87 %29.96 in8.0 miCalmMostly Cloudy
4:15 AM48.2 °F44.6 °F87 %29.96 in7.0 miCalmMostly Cloudy
4:35 AM48.2 °F44.6 °F87 %29.97 in5.0 miCalmOvercast
4:55 AM50.0 °F46.4 °F87 %29.96 in0.5 miCalmOvercast
5:15 AM50.0 °F46.4 °F87 %29.97 in0.2 miCalmOvercast
5:35 AM50.0 °F48.2 °F94 %29.97 in0.2 miCalmOvercast
5:55 AM50.0 °F46.4 °F87 %29.98 in0.2 miCalmOvercast
6:15 AM50.0 °F48.2 °F94 %29.99 in0.2 miCalmOvercast
6:35 AM51.8 °F48.2 °F88 %30.00 in0.2 miCalmOvercast
6:55 AM51.8 °F48.2 °F88 %30.00 in0.2 miNNE (30°)3.5 mphOvercast
7:15 AM51.8 °F48.2 °F88 %30.01 in0.2 miCalmOvercast
7:35 AM51.8 °F48.2 °F88 %30.02 in0.2 miCalmOvercast
7:55 AM51.8 °F48.2 °F88 %30.02 in0.2 miCalmOvercast
8:15 AM51.8 °F48.2 °F88 %30.03 in0.2 miCalmOvercast
8:35 AM51.8 °F50.0 °F94 %30.03 in0.2 miSSE (150°)3.5 mphOvercast
8:55 AM53.6 °F50.0 °F88 %30.02 in0.2 miCalmOvercast
9:15 AM53.6 °F51.8 °F94 %30.03 in0.2 miCalmOvercast
9:35 AM53.6 °F51.8 °F94 %30.04 in0.5 miCalmOvercast
9:55 AM53.6 °F51.8 °F94 %30.04 in1.8 miCalmOvercast
10:15 AM55.4 °F51.8 °F88 %30.04 in5.0 miCalmOvercast
10:35 AM55.4 °F53.6 °F94 %30.04 in10.0 miSSE (160°)5.8 mphOvercast
10:55 AM57.2 °F53.6 °F88 %30.04 in10.0 miSouth (170°)5.8 mphOvercast
11:15 AM60.8 °F55.4 °F82 %30.05 in10.0 miSouth (170°)4.6 mphMostly Cloudy
11:35 AM60.8 °F53.6 °F77 %30.04 in10.0 miCalmClear
11:55 AM62.6 °F55.4 °F77 %30.03 in10.0 miSE (130°)3.5 mphClear
12:15 PM64.4 °F55.4 °F73 %30.02 in10.0 miCalmClear
12:35 PM64.4 °F55.4 °F73 %30.01 in10.0 miCalmClear
12:55 PM69.8 °F55.4 °F60 %30.01 in10.0 miCalmClear
1:15 PM71.6 °F55.4 °F57 %30.00 in10.0 miNW (320°)6.9 mphClear
1:35 PM69.8 °F53.6 °F56 %30.00 in10.0 miNE (50°)4.6 mphScattered Clouds
1:55 PM69.8 °F53.6 °F56 %29.99 in10.0 miNW (310°)4.6 mphMostly Cloudy
2:15 PM69.8 °F55.4 °F60 %29.99 in10.0 miWest (280°)4.6 mphClear
2:35 PM69.8 °F55.4 °F60 %29.99 in10.0 miWNW (290°)3.5 mphMostly Cloudy
2:55 PM69.8 °F53.6 °F56 %29.99 in10.0 miWNW (290°)3.5 mphOvercast
3:15 PM69.8 °F53.6 °F56 %29.98 in10.0 miWNW (290°)3.5 mphOvercast
3:35 PM68.0 °F55.4 °F64 %29.98 in10.0 miWest (280°)3.5 mphOvercast
3:55 PM68.0 °F55.4 °F64 %29.98 in10.0 miCalmOvercast
4:15 PM69.8 °F55.4 °F60 %29.98 in10.0 miNorth (360°)5.8 mphMostly Cloudy
4:35 PM69.8 °F55.4 °F60 %29.98 in10.0 miNNW (330°)5.8 mphScattered Clouds
4:55 PM69.8 °F55.4 °F60 %29.98 in10.0 miCalmScattered Clouds
5:15 PM66.2 °F55.4 °F68 %29.98 in10.0 miCalmPartly Cloudy
5:35 PM64.4 °F55.4 °F73 %29.98 in10.0 miCalmClear
5:55 PM60.8 °F53.6 °F77 %29.99 in10.0 miCalmClear
6:15 PM59.0 °F53.6 °F82 %30.00 in10.0 miNorthClear
6:35 PM57.2 °F51.8 °F82 %30.00 in10.0 miCalmClear
6:55 PM55.4 °F48.2 °F77 %30.01 in10.0 miNorthClear
7:15 PM55.4 °F50.0 °F82 %30.01 in10.0 miNorthClear
7:35 PM55.4 °F51.8 °F88 %30.02 in10.0 miCalmClear
7:55 PM53.6 °F48.2 °F82 %30.02 in10.0 miNorthClear
8:15 PM53.6 °F50.0 °F88 %30.03 in10.0 miNorthClear
8:35 PM53.6 °F51.8 °F94 %30.03 in10.0 miCalmClear
9:15 PM53.6 °F50.0 °F88 %30.04 in2.5 miCalmClear
9:35 PM51.8 °F48.2 °F88 %30.04 in2.0 miNorthClear
9:55 PM53.6 °F50.0 °F88 %30.05 in10.0 miNorth (10°)5.8 mphClear
10:15 PM53.6 °F50.0 °F88 %30.05 in10.0 miNorth (360°)6.9 mphClear
10:35 PM55.4 °F51.8 °F88 %30.05 in10.0 miNorth (360°)5.8 mphClear
10:55 PM55.4 °F51.8 °F88 %30.05 in10.0 miNorth (10°)6.9 mphClear
11:15 PM55.4 °F51.8 °F88 %30.06 in10.0 miNNE (20°)5.8 mphClear
11:35 PM55.4 °F51.8 °F88 %30.06 in9.0 miCalmClear
11:55 PM53.6 °F50.0 °F88 %30.06 in0.5 miNNE (30°)3.5 mph
Hourly data recorded from KPIB, located miles away from Sumrall, Mississippi







STORIES FROM OUR PARTNERS